Regional Weather Roundup
Issued by NWS Green Bay, WI

Home | Current Version | Previous Version | Graphics & Text | Print | Product List | Glossary Off
Versions: 1 2 3 4 5 6 7 8 9 10 11 12 13 14 15 16 17 18 19 20 21 22 23 24 25 26 27 28 29 30 31 32 33 34 35 36 37 38 39 40 41 42 43 44 45 46 47 48 49

533
ASUS43 KGRB 221300
RWRGRB

NORTH-CENTRAL AND NORTHEAST WISCONSIN REGIONAL WEATHER ROUNDUP
NATIONAL WEATHER SERVICE GREEN BAY WI
800 AM CDT FRI MAY 22 2015

WIZ005-009-010>012-018-019-221400-
NORTH CENTRAL WISCONSIN

CITY           SKY/WX    TMP DP  RH WIND       PRES   REMARKS
IRONWOOD       SUNNY     46  37  71 CALM      30.17S
MANITOWISH WTR NOT AVBL
ARBOR VITAE    NOT AVBL
EAGLE RIVER    NOT AVBL
LAND O LAKES   NOT AVBL
RHINELANDER    SUNNY     48  31  51 SW6       30.20R
PHILLIPS       NOT AVBL
ANTIGO         NOT AVBL
TOMAHAWK       NOT AVBL
MERRILL        NOT AVBL
$$

WIZ013-073-221400-
NORTHEAST WISCONSIN

CITY           SKY/WX    TMP DP  RH WIND       PRES   REMARKS
IRON MOUNTAIN  SUNNY     44  27  51 CALM      30.19S
MARINETTE      SUNNY     45  25  45 NE3       30.21R
$$

WIZ017-030-035>037-045-221400-
CENTRAL WISCONSIN

CITY           SKY/WX    TMP DP  RH WIND       PRES   REMARKS
MEDFORD        NOT AVBL
WAUSAU         SUNNY     49  32  52 S8        30.20R
MOSINEE        SUNNY     46  34  61 VRB5      30.22R
MARSHFIELD     SUNNY     50  36  58 E6        30.21R
WISC RAPIDS    SUNNY     51  31  46 SE3       30.22R
STEVENS POINT  NOT AVBL
WAUPACA        NOT AVBL
SHAWANO        NOT AVBL
CLINTONVILLE   NOT AVBL
$$

WIZ038-039-048-051-221400-
FOX VALLEY

CITY           SKY/WX    TMP DP  RH WIND       PRES   REMARKS
NWS GREEN BAY  SUNNY     51  31  46 N5        30.22R
APPLETON       SUNNY     48  28  46 CALM      30.21R
OSHKOSH        SUNNY     52  30  43 E6        30.21R
FOND DU LAC    SUNNY     51  31  46 NE5       30.21R
$$

WIZ022-050-052-221400-
EAST CENTRAL WISCONSIN

CITY           SKY/WX    TMP DP  RH WIND       PRES   REMARKS
STURGEON BAY   SUNNY     46  28  49 NW7       30.23R
MANITOWOC      NOT AVBL
SHEBOYGAN      SUNNY     50  32  50 NE7       30.21R
$$

LMZ563-521-522-541>543-221400-
LAKESHORE

STATION/POSITION TIME  TEMP    WIND        PRES    VSBY  WAVE
                       AIR SEA DIR/SP/G                  HT/PER
                 (UTC) (F)     (DEG/KT/KT) (MB)    (MI)  (FT/S)
SHEBOYGAN LKSHOR 1200          350/  7/  8 1023.1R
KEWAUNEE LKSHORE 1200          310/  1/  3 1021.7R
NORTHPORT PIER   1200   45     360/  8/ 18 1022.7R
N MID LAKE BUOY  1150   38 36  320/  6/  8 1023.1R         1/ 3
SISTER BAY LKSHO 1217   48     360/ 11/ 12   N/A
STURGEON BAY CG  1155          300/  4     1022.6      6   1
CHAMBERS ISLAND  1200   47     340/  7/  8 1022.7R
MENOMINEE LKSHOR 1200   43     330/  6/  7 1023.1R
$$



USA.gov is the U.S. government's official web portal to all federal, state and local government web resources and services.